Weather in Bolshoye Kirdyashevo

Russia / Penza Oblast     53°42′22″N   43°46′12″E
temp.,
°C
wind,
m/s
gust,
m/s
humid.,
%
clouds,
%
prec.,
mm/h
press.,
hPa
HPBL,
m
4 march, thu
thu400:00−4wsw6129496 0.1 1010480
03:00−3wsw6129398 0.2 1008637
06:00−2wsw71294100 0.2 1005822
09:00−1wsw81491100 0.3 1003921
12:000wsw91587100 0.3 1002946
15:00+1wsw81488100 0.3 10011063
18:00−1wsw71393100 0.2 1001770
21:00−2wsw51197100 0.6 1001544
5 march, fri
fri500:00−2wsw3897100 1.1 1000402
03:00−3nne2398100 2.6 1001142
06:00−4n2297100 0.8 100236
09:00−4nnw3696100 1.4 1005341
12:00−4nnw349096 0.1 1007419
15:00−3wnw248874 0.1 1009493
18:00−7w339218 0.0 101132
21:00−9w379531 0.0 1013130
6 march, sat
sat600:00−10w359551 0.0 1014107
03:00−12wnw339464 0.0 101640
06:00−14nw129689 0.0 101620
09:00−11n129294 0.0 101790
12:00−7nne228584 0.0 1016328
15:00−6nne118060 0.0 1015401
18:00−12e11909 0.0 101521
21:00−13s22925 0.0 101620
7 march, sun
sun700:00−12sw239582 0.0 101555
03:00−11sw379690 0.3 1015181
06:00−12wsw379789 0.1 1015150
09:00−11sw5119279 0.1 1013356
12:00−7sw8138370 0.0 1010673
15:00−5sw9158285 0.0 10061087
18:00−5sw101892100 0.3 10021236
21:00−4sw91693100 1.7 10001170
8 march, mon
mon800:00−7w51183100 0.4 1001487
03:00−12wsw478965 0.4 1003123
06:00−13ssw48790 0.0 1002131
09:00−8ssw5118317 0.0 1000362
12:00−3sw61092100 0.5 997947
15:00−6w91473100 1.6 9991669
18:00−9w9159167 0.2 10031146
21:00−10w8158883 0.4 1007813